Flag for U.S.A. Weather past 2 weeks in Barrow, Alaska, U.S.A.

6 °F

Light snow. Ice fog.

Feels Like: -15 °F
Forecast: 8 / 23 °F
Wind: 23 mph from East

Location: Post Rogers Memorial Airport

Current Time: Nov 24, 2015 at 9:56:24 PM

Latest Report: Nov 24, 2015 at 8:53 PM

Visibility: 0 mi

Pressure: 29.61 "Hg

Humidity: 87%

Dew point: 3 °F

Location of BarrowLocation

Historic Weather in Barrow — Graph


Barrow temperature yesterday

Maximum temperature yesterday: 1 °F (at 11:53 PM)
Minimum temperature yesterday: -18 °F (at 12:53 PM)
Average temperature yesterday: -9 °F

Past Weeks' High & Low Weather Summary

High21 °F (Nov 9, 7:53 PM)100% (Nov 9, 10:53 PM)30.19 "Hg (Nov 9, 10:53 PM)
Low-26 °F (Nov 19, 9:53 AM)75% (Nov 13, 6:53 PM)29.11 "Hg (Nov 9, 7:53 PM)
Average-3 °F85%29.79 "Hg
* Reported Nov 9 7:53 PM — Nov 24 7:53 PM, Barrow, Weather by CustomWeather, © 2015

Note: Actual official high and low records may vary slightly from our data, if they occured in-between our weather recording intervals... More about our weather records


Barrow weather history for previous 24 hours

Time TempWeatherWind HumidityBarometerVisibility
7:53 PM
Tue, Nov 24
6 °FLight snow. Ice fog.28 mph87%29.62 "Hg1 mi
7:00 PM6 °FLight snow. Ice fog.28 mph87%29.63 "Hg1 mi
5:53 PM5 °FLight snow. Ice fog.31 mph91%29.65 "Hg1 mi
5:00 PM5 °FLight snow. Ice fog.N/A87%29.65 "Hg1 mi
3:53 PM5 °FLight snow. Ice fog.24 mph83%29.66 "Hg2 mi
2:53 PM4 °FIce fog.20 mph88%29.68 "Hg1 mi
1:53 PM3 °FIce fog.23 mph87%29.68 "Hg1 mi
12:53 PM3 °FIce fog.23 mph87%29.70 "Hg2 mi
11:53 AM3 °FIce fog.16 mph87%29.71 "Hg1 mi
10:53 AM2 °FLight snow. Ice fog.25 mph88%29.70 "Hg3 mi
9:53 AM3 °FLight snow. Ice fog.20 mph87%29.71 "Hg3 mi
8:53 AM3 °FIce fog.22 mph87%29.71 "Hg5 mi
7:53 AM2 °FLight snow. Ice fog.21 mph88%29.72 "Hg3 mi
6:53 AM2 °FIce fog.20 mph83%29.72 "Hg4 mi
5:53 AM1 °FPassing clouds.20 mph87%29.72 "Hg7 mi
5:01 AM1 °FPassing clouds.23 mph87%29.72 "Hg5 mi
3:53 AM2 °FPassing clouds.28 mph88%29.72 "Hg3 mi
2:53 AM2 °FOvercast.24 mph88%29.72 "Hg8 mi
1:53 AM2 °FOvercast.25 mph88%29.72 "Hg7 mi
12:53 AM2 °FPartly sunny.28 mph88%29.73 "Hg7 mi
11:53 PM
Mon, Nov 23
1 °FIce fog.25 mph87%29.74 "Hg6 mi
10:53 PM0 °FIce fog.24 mph83%29.75 "Hg5 mi
9:53 PM-2 °FClear.24 mph83%29.78 "Hg8 mi
Weather by CustomWeather, © 2015

See weather overviewHow to use our weather pages